Location: Dilsberg
(49.3983°N, 8.8354°E)
Time: 00:43:01
(UTC+00:00)

BlueWalker 3 - Pass Details

Date: 19 May 2025
Orbit: 460 x 472 km, 53.2° (Epoch: 23 June)

Event Time Altitude Azimuth Distance (km) Brightness Sun altitude
Rises 21:04:00 0° 293° (WNW) 2,496 6.5 -14.2°
Reaches altitude 10° 21:06:11 10° 288° (WNW) 1,620 5.3 -14.4°
Maximum altitude 21:09:42 48° 213° (SSW) 616 2.2 -14.7°
Enters shadow 21:11:06 30° 157° (SSE) 857 2.5 -14.9°
